Regional Weather Roundup
Issued by NWS Jackson, KY

Home | Current Version | Previous Version | Graphics & Text | Print | Product List | Glossary On
Versions: 1 2 3 4 5 6 7 8 9 10 11 12 13 14 15 16 17 18 19 20 21 22 23 24 25 26 27 28 29 30 31 32 33 34 35 36 37 38 39 40 41 42 43 44 45 46 47 48 49 50
497
ASUS43 KJKL 060910
RWRJKL

EAST KENTUCKY HOURLY WEATHER ROUNDUP
NATIONAL WEATHER SERVICE JACKSON KY
400 AM EST SAT FEB 06 2016

NOTE: "FAIR" INDICATES FEW OR NO CLOUDS BELOW 12,000 FEET WITH
NO SIGNIFICANT WEATHER AND/OR OBSTRUCTIONS TO VISIBILITY.

* THESE REPORTS ARE NOT UNDER NWS QUALITY CONTROL AND MAY NOT
  REPORT WEATHER SUCH AS PRECIPITATION AND FOG.

KYZ079-080-083-085-087-088-110-112-115-119-120-061000
...EASTERN KENTUCKY...

CITY           SKY/WX    TMP DP  RH WIND       PRES   REMARKS
JACKSON        PTCLDY    29  15  56 SW3       30.34S
LONDON         CLOUDY    25  19  78 CALM      30.35F
SOMERSET*      PTCLDY    28  21  74 CALM      30.38S
MONTICELLO*    PTCLDY    24  19  81 W7        30.38S WCI  16
WILLIAMSBURG*  CLOUDY    27  23  86 CALM      30.36F
MIDDLESBORO*   PTCLDY    25  23  91 CALM      30.39S
HARLAN APT*      N/A     27  23  86 CALM      30.36F
BLACK MTN*       N/A     25  12  58 S6          N/A  WCI  18
BIG SANDY*     MOSUNNY   31  18  58 S3        30.35S
MOREHEAD APT*  CLOUDY    28  18  64 S6        30.35F WCI  22
$$

KYZ035-036-041-042-044-050-067-078-099-061000
...CENTRAL KENTUCKY...

CITY           SKY/WX    TMP DP  RH WIND       PRES   REMARKS
MT STERLING*   CLOUDY    32  18  55 SW6       30.35S WCI  26
DANVILLE*      CLEAR     30  19  64 SW5       30.36S WCI  25
RICHMOND*      CLEAR     32  16  51 S7        30.34S WCI  26
LEXINGTON      PTCLDY    29  18  63 W3        30.33S
FRANKFORT      CLOUDY    25  17  72 S6        30.33S WCI  18
$$

KYZ091>093-OHZ055-061-077-WVZ005-015-034-035-042-061000
...SOUTHERN OHIO/WEST VIRGINIA...

CITY           SKY/WX    TMP DP  RH WIND       PRES   REMARKS
COLUMBUS       CLOUDY    28  19  69 CALM      30.31S
DAYTON         CLOUDY    22  20  92 W3        30.31F
WILMINGTON     CLOUDY    26  20  77 SW3       30.30F
HUNTINGTON       N/A     28  17  63 S5        30.34F WCI  23
CHARLESTON     MOCLDY    26  21  81 CALM      30.35F
PINEVILLE*       N/A     23  19  83 MISG      30.39S
BECKLEY          N/A     26  13  57 SE7       30.30F WCI  18
$$

VAZ002-007-008-TNZ017-027-036-066-071-061000
...SOUTHWEST VIRGINIA/EAST TENNESSEE...

CITY           SKY/WX    TMP DP  RH WIND       PRES   REMARKS
BRISTOL        PTCLDY    22  19  89 NE3       30.37S
KNOXVILLE      MOCLDY    28  21  75 CALM      30.36F
OAK RIDGE      PTCLDY    28  22  78 N3        30.39S
CROSSVILLE     PTCLDY    27  17  66 CALM      30.34S
NASHVILLE      PTCLDY    30  22  72 CALM      30.38S
$$

...KEY TO REMARKS...
VSB - VISIBILITY IN MILES
WCI - WIND CHILL INDEX
HX  - HEAT INDEX

$$




USA.gov is the U.S. government's official web portal to all federal, state and local government web resources and services.